Location: Street
(51.1247°N, 2.7429°W)
Time: 05:54:17
(UTC+00:00)

SR - Pass Details

Date: 03 December 2020
Orbit: 575 x 880 km, 66.7° (Epoch: 25 January)

Event Time Altitude Azimuth Distance (km) Brightness Sun altitude
Rises 01:38:19 0° 322° (NW) 3,152 - -55.4°
Reaches altitude 10° 01:40:37 10° 324° (NW) 2,274 - -55.1°
Maximum altitude 01:45:52 79° 51° (NE) 817 - -54.6°
Drops below altitude 10° 01:51:32 10° 138° (SE) 2,449 - -53.9°
Sets 01:54:05 0° 140° (SE) 3,412 - -53.6°
